Regional Weather Roundup
Issued by NWS Portland, ME

Home | Current Version | Previous Version | Text Only | Print | Product List | Glossary On
Versions: 1 2 3 4 5 6 7 8 9 10 11 12 13 14 15 16 17 18 19 20 21 22 23 24 25 26 27 28 29 30 31 32 33 34 35 36 37 38 39 40 41 42 43 44 45 46 47 48 49 50
000
ASUS41 KGYX 222310
RWRGYX
WEATHER ROUNDUP FOR MAINE AND NEW HAMPSHIRE
NATIONAL WEATHER SERVICE GRAY ME
700 PM EDT FRI MAY 22 2015

MEZ002-005-006-010-012-015-018-020-021-024-026-027-029-230000-
MAINE

CITY           SKY/WX    TMP DP  RH WIND       PRES   REMARKS
PORTLAND       PTSUNNY   62  31  31 NW13G22   29.89R
BAR HARBOR     CLOUDY    48  48 100 S5        29.86R
WISCASSET      CLOUDY    58  29  33 VRB6G17   29.90R
ROCKLAND       PTCLDY    54  52  94 W3        29.86R
FRYEBURG       SUNNY     56  26  31 NW13G22   29.92R
LEWISTONAUBURN SUNNY     57  27  30 NW18G25   29.91R
AUGUSTA        PTSUNNY   57  26  30 NW14G25   29.89R
WATERVILLE     SUNNY     57  27  30 NW12G22   29.87R
BANGOR         MOCLDY    53  50  89 W3        29.86R
GREENVILLE       N/A     47  28  47 NW10G18   29.84R
MILLINOCKET    PTCLDY    54  30  40 NW16G24   29.87R
HOULTON        MOCLDY    49  37  63 NW13      29.83R
PRESQUE ISLE   MOCLDY    46  30  53 N15       29.86R
FRENCHVILLE    SUNNY     43  27  53 N12G18    29.85S
CARIBOU        PTCLDY    45  32  60 NW7G18    29.86R
$$

NHZ002-005-008-009-011-012-014-230000-
NEW HAMPSHIRE

CITY           SKY/WX    TMP DP  RH WIND       PRES   REMARKS
PORTSMOUTH     MOSUNNY   63  33  31 NW20      29.87R
ROCHESTER      SUNNY     61  31  32 NW16G25   29.88R
NASHUA         MOSUNNY   67  25  20 NW16G22   29.90R
MANCHESTER     MOSUNNY   65  22  19 NW15G21   29.88R
CONCORD        MOSUNNY   61  26  26 NW16G29   29.91R
LACONIA        MOSUNNY   57  25  28 NW8G20    29.91R
PLYMOUTH       FAIR      57  32  38 NW10G20   29.93R
BERLIN         MOSUNNY   52  28  39 NW8G21    29.93R
WHITEFIELD     MOSUNNY   53  25  33 NW16G24   29.94R
JAFFREY        PTSUNNY   60  22  23 NW8G17    29.94R
KEENE          MOSUNNY   63  23  22 W7        29.94R
LEBANON        CLOUDY    59  26  28 NW9       29.94R
MT WASHINGTON  PTSUNNY   25  21  86 NW54G62     N/A  WCI   3
$$

VTZ005-007-008-230000-
VERMONT

CITY           SKY/WX    TMP DP  RH WIND       PRES   REMARKS
ST JOHNSBURY     N/A     53  27  36 MISG      29.95R
MONTPELIER     MOSUNNY   49  30  48 NW12G22   30.02R
BURLINGTON     PTSUNNY   53  26  35 NW20G28   30.01R
$$

MAZ007-012-024-CTZ003-RIZ002-NYZ038-NYZ072-230000-
SOUTHERN NEW ENGLAND AND NY

CITY           SKY/WX    TMP DP  RH WIND       PRES   REMARKS
BOSTON         MOSUNNY   69  27  20 W17G30    29.89R
WORCESTER      SUNNY     62  22  21 W17G26    29.94R
NANTUCKET      CLEAR     58  48  69 SW18      29.90R
PROVIDENCE     MOSUNNY   69  30  23 NW14G26   29.91R
HARTFORD       MOSUNNY   66  28  24 NW12      29.95R
ALBANY         MOSUNNY   60  26  27 W16G23    30.02R
NEW YORK CITY  MOSUNNY   71  38  29 W14G28    29.95R
$$

ANZ081-ANZ082-ANZ150-NHZ014-MEZ023>029-230000-
COASTAL MARINE OBSERVATIONS

STATION/POSITION TIME  TEMP    WIND        PRES    WAVE
                       AIR SEA DIR/SP/G            HT/PER
                 (UTC) (F)     (DEG/KT/KT) (MB)    (FT/S)
MOUNT DESERT ROC 2300   44     150/  3/  4   N/A
MATINICUS ROCK   2300   47     210/ 10/ 11   N/A
ISLE OF SHOALS   2300   60     330/ 23/ 25   N/A
JEFFREYS LEDGE   2203      48                N/A     2/10
CASHES LEDGE BUO 2250   53 49                N/A     2/ 4
GEORGES BANK BUO 2250   48 47  270/ 10/ 14   N/A     5/ 7
$$

.............KEY..............
   WCI - WIND CHILL
   TC  - TEMPERATURE IN CELSIUS
   VSB - VISIBILITY IN MILES
   HX  - HEAT INDEX
   FAIR- INDICATES FEW OR NO CLOUDS BELOW 12,000 FT, WITH NO
         SIGNIFICANT WEATHER AND/OR OBSTRUCTIONS TO VISIBILITY.




USA.gov is the U.S. government's official web portal to all federal, state and local government web resources and services.